DC1NF-7 Weather Reports


Display with metric or nautical units.
time (UTC)temp
F
wind
direction
speed
MPH
gust
MPH
rain 1hr
in
rain 24hr
in
rain mn
in
humidity
%
barometer
mb
20260831210050 63 230 2.0 4.0 0.00 0.26 0.26 82 1015.1
20260831205044 63 224 4.0 7.0 0.00 0.26 0.26 80 1014.8
20260831204040 64 222 5.0 11.0 0.00 0.26 0.26 78 1015.0
20260831203038 64 229 4.0 11.0 0.00 0.26 0.26 76 1014.9
20260831202033 63 237 2.0 4.0 0.00 0.26 0.26 78 1014.7
20260831201031 63 202 2.0 4.0 0.00 0.26 0.26 78 1014.7
20260831200027 64 248 3.0 6.0 0.00 0.26 0.26 77 1014.5
20260831195024 64 255 3.0 6.0 0.00 0.26 0.26 77 1014.4
20260831194021 64 244 3.0 7.0 0.00 0.26 0.26 77 1014.2
20260831193016 63 224 4.0 9.0 0.00 0.26 0.26 77 1014.1
20260831192115 63 221 3.0 7.0 0.00 0.26 0.26 77 1014.0
20260831191110 64 243 4.0 7.0 0.00 0.26 0.26 76 1014.0
20260831190105 64 219 4.0 7.0 0.00 0.26 0.26 76 1014.1
20260831185104 64 212 4.0 7.0 0.00 0.26 0.26 75 1013.9
20260831184059 64 218 3.0 7.0 0.00 0.26 0.26 75 1014.0
20260831183058 64 237 4.0 8.0 0.00 0.26 0.26 74 1014.0
20260831182052 64 247 5.0 9.0 0.00 0.26 0.26 75 1013.8
20260831181046 64 246 3.0 8.0 0.01 0.26 0.26 78 1013.5
20260831180042 64 236 4.0 8.0 0.01 0.26 0.26 78 1013.4
20260831175040 65 224 5.0 13.0 0.01 0.26 0.26 75 1013.1
20260831174034 65 228 7.0 11.0 0.01 0.26 0.26 74 1013.0
20260831173030 65 225 5.0 9.0 0.01 0.26 0.26 70 1012.6
20260831172027 67 235 11.0 21.0 0.01 0.26 0.26 69 1012.7
20260831171025 71 220 14.0 27.0 0.00 0.25 0.25 55 1012.6
20260831170023 72 237 10.0 22.0 0.00 0.25 0.25 48 1012.5
20260831165016 73 238 9.0 16.0 0.00 0.25 0.25 48 1012.4
20260831164112 73 236 8.0 14.0 0.00 0.25 0.25 47 1012.4
20260831163110 73 244 7.0 13.0 0.00 0.25 0.25 47 1012.1
20260831162105 74 230 8.0 17.0 0.00 0.25 0.25 46 1012.2
20260831161102 74 225 7.0 11.0 0.00 0.25 0.25 46 1012.0
20260831160059 75 192 9.0 15.0 0.00 0.25 0.25 46 1012.1
20260831155056 76 229 8.0 17.0 0.00 0.25 0.25 44 1011.9
20260831154053 76 239 9.0 22.0 0.00 0.25 0.25 44 1012.0
20260831153051 76 181 6.0 16.0 0.00 0.25 0.25 44 1011.9
20260831152046 76 219 6.0 14.0 0.00 0.25 0.25 44 1011.9
20260831151040 74 233 7.0 16.0 0.00 0.25 0.25 44 1012.1
20260831150039 75 226 10.0 23.0 0.00 0.25 0.25 43 1012.0
20260831145038 75 178 9.0 21.0 0.00 0.25 0.25 44 1012.0
20260831144032 76 244 9.0 18.0 0.00 0.25 0.25 44 1012.1
20260831143026 75 221 12.0 22.0 0.00 0.25 0.25 44 1012.0
20260831142022 75 238 10.0 20.0 0.00 0.25 0.25 45 1012.2
20260831141019 75 242 10.0 21.0 0.00 0.25 0.25 46 1012.1
20260831140114 76 214 11.0 22.0 0.00 0.25 0.25 45 1012.1
20260831135109 76 240 10.0 18.0 0.00 0.25 0.25 47 1012.0
20260831134107 75 243 11.0 21.0 0.00 0.25 0.25 48 1012.1
20260831133102 76 218 11.0 22.0 0.00 0.25 0.25 47 1012.0
20260831132059 76 221 9.0 21.0 0.00 0.25 0.25 48 1012.0
20260831131056 76 244 9.0 17.0 0.00 0.25 0.25 48 1012.0
20260831130055 76 202 8.0 17.0 0.00 0.25 0.25 50 1012.1
20260831125047 76 232 7.0 17.0 0.00 0.25 0.25 51 1012.1
20260831124043 73 201 8.0 17.0 0.00 0.25 0.25 54 1012.2
20260831123041 74 241 9.0 17.0 0.00 0.25 0.25 54 1012.2
20260831122037 75 229 7.0 17.0 0.00 0.25 0.25 54 1012.2
20260831121033 75 199 8.0 16.0 0.00 0.25 0.25 53 1012.1
20260831120032 75 249 9.0 15.0 0.00 0.25 0.25 54 1012.3
20260831115028 74 229 7.0 16.0 0.00 0.25 0.25 54 1012.3
20260831114024 74 255 7.0 15.0 0.00 0.25 0.25 55 1012.3
20260831113022 74 227 9.0 18.0 0.00 0.25 0.25 56 1012.4
20260831112017 73 215 9.0 16.0 0.00 0.25 0.25 56 1012.5
20260831111112 72 249 6.0 11.0 0.00 0.25 0.25 57 1012.4
20260831110108 72 251 8.0 17.0 0.00 0.25 0.25 58 1012.5
20260831105105 71 219 8.0 16.0 0.00 0.25 0.25 60 1012.6
20260831104102 72 253 8.0 17.0 0.00 0.25 0.25 60 1012.5
20260831103058 72 183 8.0 16.0 0.00 0.25 0.25 61 1012.7
20260831102054 71 239 7.0 15.0 0.00 0.25 0.25 61 1012.5
20260831101051 70 219 9.0 17.0 0.00 0.25 0.25 61 1012.6
20260831100046 72 195 8.0 15.0 0.00 0.25 0.25 58 1012.7
20260831095041 72 232 9.0 17.0 0.00 0.25 0.25 59 1012.6
20260831094037 70 218 8.0 15.0 0.00 0.25 0.25 63 1012.5
20260831093033 70 247 6.0 20.0 0.00 0.25 0.25 62 1012.7
20260831092031 70 236 6.0 13.0 0.00 0.25 0.25 66 1012.7
20260831091027 70 237 9.0 18.0 0.00 0.25 0.25 67 1012.6
20260831090025 70 208 7.0 13.0 0.00 0.25 0.25 68 1012.7
20260831085019 70 190 7.0 11.0 0.00 0.25 0.25 68 1012.6
20260831084016 70 228 8.0 14.0 0.00 0.25 0.25 69 1012.4
20260831083112 68 231 10.0 17.0 0.00 0.25 0.25 71 1012.5
20260831082109 68 182 7.0 14.0 0.00 0.25 0.25 73 1012.4
20260831081106 68 222 7.0 14.0 0.00 0.25 0.25 75 1012.3
20260831075059 68 253 5.0 9.0 0.00 0.25 0.25 78 1012.2
20260831074056 66 236 6.0 11.0 0.00 0.25 0.25 80 1012.4
20260831073052 66 248 7.0 13.0 0.00 0.25 0.25 81 1012.3
20260831072048 66 246 6.0 11.0 0.00 0.25 0.25 81 1012.2
20260831071043 66 216 5.0 8.0 0.00 0.25 0.25 83 1012.1
20260831070042 65 212 6.0 11.0 0.00 0.25 0.25 85 1011.9
20260831065037 65 229 5.0 9.0 0.00 0.25 0.25 86 1011.8
20260831064034 65 227 4.0 9.0 0.00 0.25 0.25 87 1011.9
20260831063030 64 231 5.0 11.0 0.00 0.25 0.25 89 1011.7
20260831062025 64 229 3.0 7.0 0.00 0.25 0.25 91 1011.5
20260831061022 64 232 5.0 9.0 0.00 0.25 0.25 91 1011.5
20260831060018 63 227 5.0 13.0 0.00 0.25 0.25 92 1011.3
20260831055113 63 238 5.0 8.0 0.00 0.25 0.25 92 1011.3
20260831054110 63 247 5.0 11.0 0.00 0.25 0.25 92 1011.2
20260831053107 63 244 6.0 11.0 0.00 0.25 0.25 92 1011.1
20260831052102 63 221 6.0 13.0 0.00 0.25 0.25 92 1010.9
20260831051059 63 239 7.0 13.0 0.00 0.25 0.25 92 1010.9
20260831050055 63 234 6.0 13.0 0.00 0.25 0.25 93 1010.7
20260831045051 63 238 4.0 9.0 0.00 0.25 0.25 96 1010.6
20260831044047 62 196 2.0 4.0 0.01 0.25 0.25 96 1010.3
20260831043043 62 231 1.0 4.0 0.01 0.25 0.25 96 1010.3
20260831042041 62 180 2.0 4.0 0.01 0.25 0.25 96 1010.1
20260831041037 62 180 2.0 4.0 0.01 0.25 0.25 96 1010.1
20260831040034 62 230 1.0 2.0 0.01 0.25 0.25 96 1010.2
20260831035031 62 193 0.0 2.0 0.02 0.25 0.25 96 1010.2
20260831034029 62 0.0 2.0 0.01 0.24 0.24 96 1009.9
20260831033023 62 0.0 2.0 0.12 0.24 0.24 96 1010.0
20260831032019 61 74 0.0 2.0 0.20 0.24 0.24 96 1010.1
20260831031017 61 90 0.0 2.0 0.24 0.24 0.24 96 1010.0
20260831030112 61 225 0.0 2.0 0.24 0.24 0.24 95 1010.3
20260831025110 61 195 1.0 4.0 0.22 0.22 0.22 95 1010.2
20260831024106 61 157 1.0 4.0 0.22 0.22 0.22 94 1010.1
20260831023102 61 254 4.0 8.0 0.12 0.12 0.12 93 1010.5
20260831022057 63 236 4.0 11.0 0.04 0.04 0.04 89 1009.7
20260831021055 63 0.0 0.0 0.00 0.00 0.00 86 1009.1
20260831020049 63 85 1.0 4.0 0.00 0.00 0.00 86 1009.0
20260831015045 63 92 1.0 2.0 0.00 0.00 0.00 86 1009.1
20260831014040 63 76 1.0 2.0 0.00 0.00 0.00 86 1009.3
20260831013037 62 90 1.0 2.0 0.00 0.00 0.00 87 1009.4
20260831012034 62 0.0 2.0 0.00 0.00 0.00 88 1009.5
20260831011031 62 87 1.0 2.0 0.00 0.00 0.00 88 1009.6
20260831010027 62 72 1.0 4.0 0.00 0.00 0.00 89 1009.6
20260831005025 62 0.0 0.0 0.00 0.00 0.00 89 1009.8
20260831004018 62 80 2.0 4.0 0.00 0.00 0.00 89 1009.9
20260831003015 61 83 1.0 2.0 0.00 0.00 0.00 89 1010.0
20260831002112 61 93 1.0 2.0 0.00 0.00 0.00 89 1010.2
20260831001109 61 70 1.0 2.0 0.00 0.00 0.00 90 1010.3
20260831000106 60 69 1.0 2.0 0.00 0.00 0.00 90 1010.4
20260830235106 60 90 1.0 2.0 0.00 0.00 0.00 91 1010.4
20260830234100 60 0.0 0.0 0.00 0.00 0.00 90 1010.5
20260830233058 60 0.0 0.0 0.00 0.00 0.00 90 1010.8
20260830232053 60 90 0.0 2.0 0.00 0.00 0.00 90 1010.7
20260830231049 60 90 0.0 2.0 0.00 0.00 0.00 90 1010.8
20260830230044 60 0.0 0.0 0.00 0.00 0.00 90 1010.8
20260830225041 60 0.0 0.0 0.00 0.00 0.00 89 1011.1
20260830224038 60 0.0 0.0 0.00 0.00 0.00 89 1011.0
20260830223035 61 0.0 0.0 0.00 0.00 0.00 87 1011.2
20260830222031 61 0.0 0.0 0.00 0.00 0.00 87 1011.2
20260830221027 61 0.0 0.0 0.00 0.00 0.00 87 1011.1
20260830220023 61 0.0 0.0 0.00 0.00 0.00 86 1011.1
20260830215019 62 0.0 0.0 0.00 0.00 0.00 85 1011.2
20260830214115 62 0.0 0.0 0.00 0.00 0.00 84 1011.3
20260830213110 62 0.0 0.0 0.00 0.00 0.00 83 1011.2
20260830212108 62 0.0 0.0 0.00 0.00 0.00 84 1011.1
20260830211104 63 0.0 2.0 0.00 0.00 0.00 83 1011.2